{"data":{"norad_id":53961,"epoch":"2026-09-19T00:57:07.422336Z","epoch_age_seconds":141217,"freshness":"FRESH","line1":"1 53961U 22123B   26262.03966924  .00000065  00000+0  00000+0 0  9990","line2":"2 53961   0.0340  63.7792 0001240 121.0485  56.4175  1.00274254  8152","mean_motion":1.00274254,"eccentricity":0.000124,"inclination_deg":0.034,"raan_deg":63.7792,"arg_perigee_deg":121.0485,"mean_anomaly_deg":56.4175,"bstar":0,"rev_number":815,"period_min":1436.0615437737,"perigee_km":35780.674484127,"apogee_km":35791.131166004,"semimajor_km":42164.039825065,"source":"CELESTRAK","updated_at":"2026-09-20T09:00:35.688209Z"}}